CW5532 Weather Reports


Display with metric or nautical units.
time (UTC)temp
F
wind
direction
speed
MPH
gust
MPH
rain 1hr
in
rain 24hr
in
rain mn
in
humidity
%
barometer
mb
20260903000215 68 252 0.0 0.0 0.00 0.00 0.00 79 1019.8
20260902230714 68 284 0.0 0.0 0.00 0.00 0.00 78 1019.7
20260902220714 71 286 0.0 0.0 0.00 0.00 0.00 76 1019.4
20260902213714 72 275 0.0 0.0 0.00 0.00 0.00 75 1019.4
20260902210713 73 216 1.0 6.0 0.00 0.00 0.00 74 1019.1
20260902200714 75 89 0.0 0.0 0.00 0.00 0.00 69 1019.1
20260902193237 77 87 0.0 3.0 0.00 0.00 0.00 65 1018.8
20260902190737 78 115 0.0 0.0 0.00 0.00 0.00 65 1018.2
20260902190236 79 115 0.0 3.0 0.00 0.00 0.00 64 1018.4
20260902183236 80 104 0.0 8.0 0.00 0.00 0.00 63 1017.8
20260902173737 84 117 3.0 7.0 0.00 0.00 0.00 54 1017.3
20260902170736 87 110 3.0 10.0 0.00 0.00 0.00 50 1016.8
20260902170236 87 118 4.0 8.0 0.00 0.00 0.00 49 1016.9
20260902163236 88 153 5.0 12.0 0.00 0.00 0.00 47 1016.8
20260902153236 89 147 5.0 15.0 0.00 0.00 0.00 43 1016.9
20260902150736 90 154 6.0 12.0 0.00 0.00 0.00 42 1016.8
20260902143236 90 149 5.0 17.0 0.00 0.00 0.00 41 1016.9
20260902140235 90 125 5.0 16.0 0.00 0.00 0.00 40 1017.1
20260902133736 91 130 7.0 15.0 0.00 0.00 0.00 39 1017.2
20260902133236 92 120 10.0 18.0 0.00 0.00 0.00 38 1017.1
20260902130736 92 121 5.0 13.0 0.00 0.00 0.00 39 1017.1
20260902130236 93 98 7.0 12.0 0.00 0.00 0.00 39 1017.0
20260902123735 93 126 5.0 7.0 0.00 0.00 0.00 41 1017.2
20260902123235 93 106 3.0 13.0 0.00 0.00 0.00 40 1017.3
20260902120736 91 108 5.0 12.0 0.00 0.00 0.00 45 1017.5
20260902120235 90 111 6.0 10.0 0.00 0.00 0.00 45 1017.7
20260902113735 89 94 3.0 5.0 0.00 0.00 0.00 46 1017.9
20260902113236 88 92 4.0 10.0 0.00 0.00 0.00 47 1018.1
20260902100236 84 95 0.0 1.0 0.00 0.00 0.00 51 1018.9
20260902090736 81 92 0.0 2.0 0.00 0.00 0.00 65 1018.9
20260902090235 80 80 0.0 3.0 0.00 0.00 0.00 66 1019.0
20260902080735 76 105 0.0 0.0 0.00 0.00 0.00 72 1018.8
20260902080235 76 105 0.0 0.0 0.00 0.00 0.00 72 1018.7
20260902073736 73 239 0.0 0.0 0.00 0.00 0.00 76 1018.9
20260902070235 68 258 0.0 0.0 0.00 0.00 0.00 79 1019.0
20260902063235 65 247 0.0 0.0 0.00 0.00 0.00 80 1019.0
20260902060735 64 251 0.0 0.0 0.00 0.00 0.00 80 1018.8
20260902043735 62 246 0.0 0.0 0.00 0.00 0.00 80 1018.1
20260902043234 62 246 0.0 0.0 0.00 0.00 0.00 80 1018.0
20260902033735 62 258 0.0 0.0 0.00 0.00 0.00 80 1018.1
20260902033235 62 258 0.0 0.0 0.00 0.00 0.00 80 1018.1
20260902030734 62 258 0.0 0.0 0.00 0.00 0.00 80 1018.0
20260902030234 62 258 0.0 0.0 0.00 0.00 0.00 80 1018.0
20260902020235 64 223 0.0 0.0 0.00 0.00 0.00 80 1018.0
20260902013734 64 223 0.0 0.0 0.00 0.00 0.00 80 1018.0
20260902010735 65 223 0.0 0.0 0.00 0.00 0.00 80 1018.0
20260902003234 65 226 0.0 5.0 0.00 0.00 0.00 80 1018.1